Tracking 32523 objects as of 12-Dec-2025
HD Live streaming from Space Station
objects crossing your sky now

HULIANWANG DIGUI-57

Track HULIANWANG DIGUI-57 now!
10-day predictions


NORAD ID: 65114
Int'l Code: 2025-168J
Perigee: 1,149.5 km
Apogee: 1,163.4 km
Inclination: 50.0 °
Period: 108.3 minutes
Semi major axis: 7527 km
RCS: Unknown
Launch date: August 4, 2025
Source: People's Republic of China (PRC)
Launch site: Wenchang Satellite Launch Center (WSC)
Your satellite tracking list
Your tracking list is empty




NASA's NSSDC Master Catalog

Two Line Element Set (TLE):
1 65114U 25168J   25346.27389107 -.00000048  00000-0  16425-3 0  9990
2 65114  50.0019 275.7521 0009187 274.6058  85.3765 13.29325218 17840
Source of the keplerian elements: AFSPC